Location: Ceske Budejovice
(48.9830°N, 14.4670°E)
Time: 12:21:47
(UTC+01:00)

ISS - Pass Details

Date: 25 November 2019
Orbit: 411 x 421 km, 51.6° (Epoch: 15 December)

Event Time Altitude Azimuth Distance (km) Brightness Sun altitude
Rises 19:12:11 0° 259° (W) 2,357 1.2 -29.0°
Reaches altitude 10° 19:14:17 10° 262° (W) 1,497 -0.1 -29.4°
Enters shadow 19:15:06 16° 265° (W) 1,170 -0.7 -29.5°
